Weather History for KPIE - December, 2001

Change the Weather History Date:

Sunday, December 30, 2001

  Actual Average Record
Temperature  
Mean Temperature 62 °F -  
Max Temperature 68 °F 71 °F 83 °F (1990)
Min Temperature 57 °F 54 °F 37 °F (1961)
Degree Days  
Heating Degree Days 2    
Growing Degree Days 12 (Base 50)    
Moisture  
Dew Point 57 °F    
Average Humidity 87    
Maximum Humidity 100    
Minimum Humidity 63    
Precipitation  
Precipitation 0.00 in - - ()
Sea Level Pressure  
Sea Level Pressure 30.07 in    
Wind  
Wind Speed 4 mph (NNE)    
Max Wind Speed 10 mph    
Max Gust Speed -    
Visibility 10 miles    
Events      
Averages and records for this station are not official NWS values.
T = Trace of Precipitation, MM = Missing Value Source: NWS Daily Summary

Daily Weather History Graph

Daily Weather History Graph

Search for Another Location

Airport or City:

Trip Planner

Search our weather history database for the weather conditions in past years. The results will help you decide how hot, cold, wet, or windy it might be!

Date:

Astronomy

Dec. 30, 2001 Rise Set
Actual Time 7:21 AM EST 5:45 PM EST
Civil Twilight 6:55 AM EST 6:11 PM EST
Nautical Twilight 6:26 AM EST 6:40 PM EST
Astronomical Twilight 5:57 AM EST 7:09 PM EST
Moon 6:09 PM EST (12/30) 7:32 AM EST (12/30)
Length of Visible Light 11h 15m
Length of Day
10h 24m
Full, 100% of the Moon is Illuminated
Dec 30
Full
Jan 5
Last Quarter
Jan 13
New
Jan 21
First Quarter
Jan 28
Full

Hourly Weather History & Observations

Time (EST) Temp. Dew Point Humidity Pressure Visibility Wind Dir Wind Speed Gust Speed Precip Events Conditions
12:53 AM 61.0 °F 61.0 °F 100% 30.04 in 10.0 mi South 3.5 mph - N/A   Overcast
1:53 AM 61.0 °F 61.0 °F 100% 30.04 in 10.0 mi Calm Calm - N/A   Mostly Cloudy
2:53 AM 60.1 °F 60.1 °F 100% 30.04 in 10.0 mi Calm Calm - N/A   Mostly Cloudy
3:53 AM 59.0 °F 59.0 °F 100% 30.04 in 10.0 mi Calm Calm - N/A   Scattered Clouds
4:53 AM 57.9 °F 57.9 °F 100% 30.04 in 10.0 mi Calm Calm - N/A   Scattered Clouds
5:16 AM 59.0 °F 59.0 °F 100% 30.04 in 10.0 mi NNE 3.5 mph - N/A   Mostly Cloudy
5:29 AM 59.0 °F 59.0 °F 100% 30.04 in 10.0 mi Calm Calm - N/A   Overcast
5:53 AM 61.0 °F 61.0 °F 100% 30.04 in 10.0 mi ENE 3.5 mph - N/A   Overcast
6:03 AM 62.6 °F 62.6 °F 100% 30.04 in 10.0 mi NE 4.6 mph - N/A   Overcast
6:53 AM 61.0 °F 61.0 °F 100% 30.06 in 10.0 mi NNE 5.8 mph - N/A   Overcast
7:53 AM 60.1 °F 57.0 °F 90% 30.09 in 10.0 mi NNE 6.9 mph - N/A   Overcast
8:53 AM 60.1 °F 55.9 °F 86% 30.11 in 10.0 mi NE 8.1 mph - N/A   Scattered Clouds
9:53 AM 62.1 °F 55.9 °F 80% 30.13 in 10.0 mi NNE 5.8 mph - N/A   Clear
10:53 AM 62.1 °F 57.0 °F 84% 30.13 in 10.0 mi NE 3.5 mph - N/A   Overcast
11:53 AM 64.0 °F 57.9 °F 80% 30.10 in 10.0 mi NNE 5.8 mph - N/A   Overcast
12:53 PM 64.9 °F 57.0 °F 75% 30.07 in 10.0 mi NE 5.8 mph - N/A   Mostly Cloudy
1:53 PM 64.9 °F 55.9 °F 73% 30.05 in 10.0 mi NE 3.5 mph - N/A   Clear
2:53 PM 66.9 °F 55.0 °F 66% 30.04 in 10.0 mi NNE 3.5 mph - N/A   Mostly Cloudy
3:53 PM 68.0 °F 55.0 °F 63% 30.04 in 10.0 mi Calm Calm - N/A   Overcast
4:53 PM 68.0 °F 55.9 °F 65% 30.06 in 10.0 mi Calm Calm - N/A   Partly Cloudy
5:53 PM 62.1 °F 57.0 °F 84% 30.07 in 10.0 mi NW 9.2 mph - N/A   Clear
6:53 PM 61.0 °F 54.0 °F 78% 30.09 in 10.0 mi NNW 8.1 mph - N/A   Mostly Cloudy
7:53 PM 60.1 °F 54.0 °F 80% 30.10 in 10.0 mi North 6.9 mph - N/A   Partly Cloudy
8:53 PM 60.1 °F 55.9 °F 86% 30.10 in 10.0 mi North 8.1 mph - N/A   Partly Cloudy
9:53 PM 61.0 °F 55.9 °F 83% 30.09 in 10.0 mi North 9.2 mph - N/A   Overcast
10:53 PM 59.0 °F 54.0 °F 83% 30.08 in 10.0 mi North 10.4 mph - N/A   Scattered Clouds
11:53 PM 57.9 °F 53.1 °F 84% 30.08 in 10.0 mi North 9.2 mph - N/A   Clear